Location: Arezzo
(43.4170°N, 11.8830°E)
Time: 07:02:08
(UTC+02:00)

ISS - Pass Details

Date: 10 July 2022
Orbit: 412 x 419 km, 51.6° (Epoch: 09 August)

Event Time Altitude Azimuth Distance (km) Brightness Sun altitude
Exits shadow 01:13:26 33° 329° (NNW) 727 -2.1 -24.3°
Maximum altitude 01:13:40 33° 339° (NNW) 721 -2.1 -24.3°
Drops below altitude 10° 01:16:44 10° 46° (NE) 1,489 -0.4 -24.3°
Enters shadow 02:25:50 -45° 264° (W) 9,569 3.1 -22.5°
